skip to main content

Salvage Dealers List

Click on any column heading to sort by that column or use the search field below to enter search terms.

Click on a Business Name for more detailed information about that dealer.

Business NamePhonePhysical AddressCityZipDealerIDLicense NumberExpires
ADOM MOTORS(512) 351-300512613 JAMES POLK STMANOR78653477982276477982014-08-12 00:00:00
ADONAI AUTO SALES INC(956) 417-3319577 RANCHO PENITAS UNIT BLAREDO78045383482402383482015-06-08 00:00:00
ADONIS MOTORS(713) 315-18979202 ROCKY VALLEY DRIVEHOUSTON7708330800792308002015-06-19 00:00:00
ADRIANA AUTO SALES(956) 739-19112213 SALTILLO STHIDALGO78557524631082524632014-08-07 00:00:00
ADRIANA AUTO SALES(956) 739-19112213 SALTILLO STHIDALGO78557524631086524632014-08-07 00:00:00
ADRYS AUTO SALES(956) 227-29715606 S RAUL LONGORIA #BEDINBURG78542516531082516532015-04-03 00:00:00
ADVANCE AUTO SALES(281) 463-98814403 HIGHWAY 6 NORTHHOUSTON77084502241012502242014-08-13 00:00:00
ADVANCE AUTO SALES(832) 868-18305771 CULLEN BLVDHOUSTON77021506271012506272014-10-17 00:00:00
ADVANCE AUTO SALES(832) 868-18305771 CULLEN BLVDHOUSTON77021506271016506272014-10-17 00:00:00
ADVANCE AUTOS(806) 291-87871505 N COLUMBIAPLAINVIEW79072436600952436602014-12-03 00:00:00
ADVANCED CAR CONNECTION(936) 223-92301271 FM 1988 EGOODRICH77335480161876480162014-09-19 00:00:00
ADVANTAGE(832) 330-62991308 NORWOOD STDEER PARK77536499061012499062015-06-22 00:00:00
ADVANTAGE AUTO SALES(817) 536-00403309 MANSFIELD HWYFORT WORTH761196832202006832014-10-30 00:00:00
ADVANTAGE AUTO SALES(817) 536-00403309 MANSFIELD HWYFORT WORTH761196832206006832015-04-22 00:00:00
ADVANTAGE AUTO SALES OF WICHITA FALLS(940) 689-00012452 ARENA RD.WITCHITA FALLS76310483972435483972014-11-21 00:00:00
ADVANTAGE AUTOMOBILE BODY PARTS INC(817) 808-75402909 VAUGHN BLVDFT WORTH7610570572206070572014-10-31 00:00:00
ADVANTAGE HOUSTON MOTORS LLC(281) 250-508612822 MCNAIR STHOUSTON77015416631012416632015-03-04 00:00:00
ADVANTAGE HOUSTON MOTORS LLC(281) 250-508612822 MCNAIR STHOUSTON77015416631016416632015-03-04 00:00:00
ADVANTAGE MOTORS(214) 551-5269615 E HOUSTONSHERMAN75090510190912510192015-01-02 00:00:00
ADVANTAGE MOTORS(214) 551-5269615 E HOUSTONSHERMAN75090510190916510192015-01-02 00:00:00
ADVANTAGE SALVAGE AND AUTO PARTS, LLC(361) 289-50005330 AGNES STCORPUS CHRISTI78405331731782331732014-09-17 00:00:00
ADVENTURE AUTO(936) 634-17001709 WEST FRANK AVELUFKIN75904411130032411132014-10-03 00:00:00
ADVENTURE AUTO(936) 634-17001709 WEST FRANK AVELUFKIN75904411130036411132015-08-22 00:00:00
ADWAJ IMPORT EXPORT(832) 620-63388700 COMMERCE PARK DR #228CHOUSTON77036418601012418602015-06-06 00:00:00
ADWAJ IMPORT EXPORT(832) 620-63388700 COMMERCE PARK DR #228CHOUSTON77036418601016418602015-03-04 00:00:00
AERO AUTO SALES(469) 438-93461930 MICHIGAN AVEDALLAS75216433250572433252014-10-14 00:00:00
AERO AUTO SALES(469) 438-93461930 MICHIGAN AVEDALLAS75216433250576433252014-10-14 00:00:00
AEROBILT MANUFACTURING COMPANY(972) 997-5733834 HERITAGE PARKWAY SALLEN75002541620436541622015-05-09 00:00:00
AEROMARINE ENTERPRISE(832) 279-14216826 CADDO LAKE LANEHOUSTON77083358351016358352015-02-01 00:00:00
AEROPLACE SERVICES INCORPORATED(469) 964-187515 FIELDER RDDENISON75020526470912526472014-09-04 00:00:00
AF1 RACING, INC(512) 627-0278699 W SAN ANTONIONEW BRAUNFELS78130506910461506912014-10-30 00:00:00
AF1 RACING, INC(830) 626-3966699 W SAN ANTONIONEW BRAUNFELS78130506910461506912014-10-30 00:00:00
AFFORDABLE AUTO ENTERPRISES(281) 651-652219224 KUYKENDAHLSPRING77379417381014417382015-03-09 00:00:00
AFFORDABLE AUTO REPAIR(940) 458-198711721 MARION RDSANGER76266479290616479292014-09-19 00:00:00
AFFORDABLE AUTO SALES(832) 407-64312622 MUEGGE RDROSENBERG77471397060795397062015-03-21 00:00:00
AFFORDABLE AUTOS(281) 615-501724803 BAYWICK DRIVESPRING77389544171012544172015-06-06 00:00:00
AFFORDABLE AUTOS(281) 615-501724803 BAYWICK DRIVESPRING77389544171016544172015-06-06 00:00:00
AFFORDABLE CARS AND SERVICES(832) 630-25705710 JAMES PLACEHOUSTON77085534221012534222015-01-17 00:00:00
AFFORDABLE MOTORS(956) 570-86971805 N 34TH STMCALLEN78501505411086505412014-10-18 00:00:00
AFFORDABLE SALES(281) 987-03005204 NORTHINGTONHOUSTON77039308371016308372015-07-01 00:00:00
AFFORDABLE USED CARS(409) 347-12173730 EAST LUCASBEAUMONT77708438661236438662015-02-02 00:00:00
AFFORDABLES PLUS AUTO SALES(832) 267-34501310 HANCOCKPASADENA77502472390572472392015-05-17 00:00:00
AFFORDABLES PLUS AUTO SALES(832) 267-34501310 HANCOCKPASADENA77502472390576472392015-05-20 00:00:00
AFRICAN GIFT STORE(757) 342-89272801 WALNUT BEND LN #55HOUSTON77042443101012443102014-08-09 00:00:00
AG AUTO SALES(713) 870-0875111 BLUE BELLHOUSTON77037458471012458472014-10-27 00:00:00
AG MOTORS(713) 884-087217930 SUNSHINE TRACE LANERICHMOND77407480440795480442014-09-20 00:00:00
AG MOTORS(713) 884-087217930 SUNSHINE TRACE LANERICHMOND77407480440796480442014-09-20 00:00:00
AG MOTORS(956) 237-0116201 E GUERRERO STLAREDO78040489392406489392015-02-15 00:00:00
AGAPE LOVE(713) 683-10402008 D WIRT RDHOUSTON77055354811012354812015-03-29 00:00:00
AGHADE VENTURE AUTO BROKER(512) 803-51691108 DORAS DRPFLUGERVILLE78660392492276392492014-11-07 00:00:00

Copyright © 2014 Texas Department of Motor Vehicles. All rights reserved. - 4000 Jackson Ave, Austin, TX 78731